Location: Valdosta
(30.8330°N, 83.2790°W)
Time: 00:29:12
(UTC-05:00)

Daily predictions for brighter satellites

Satellite Brightness Start Highest point End
(mag) Time Altitude Azimuth Time Altitude Azimuth Time Altitude Azimuth
CZ-4C R/B 4.4 03:54:44 19° ENE 03:54:44 19° ENE 03:56:41 10° NE
ADEOS II 4.3 04:12:55 10° NNE 04:14:12 18° NNE 04:14:12 18° NNE
Okean 1-7 4.4 04:45:42 36° E 04:45:42 36° E 04:49:27 10° NNE
Cosmos 1656 Rocket 3.7 04:50:01 75° NE 04:50:01 75° NE 04:55:14 10° NNE
GEOS 3 Rocket 4.2 04:55:06 10° SE 05:00:01 52° NE 05:02:58 23° NNW
ATLAS CENTAUR R/B 4.1 04:59:20 39° NW 05:02:41 81° SW 05:23:27 10° SSE
Cosmos 1417 Rocket 4.5 04:58:16 10° S 05:04:27 80° E 05:10:36 10° N
Lacrosse 5 4.0 05:07:32 14° N 05:07:32 14° N 05:08:51 10° N
Cosmos 1782 Rocket 4.2 05:05:47 10° N 05:10:10 56° E 05:14:29 10° SSE
Cosmos 1954 Rocket 4.4 05:08:40 10° N 05:13:58 64° ENE 05:19:13 10° SSE
Cosmos 1420 Rocket 3.8 05:13:54 48° SSW 05:15:23 82° WNW 05:20:35 10° NNE
Meteor 2-10 Rocket 3.6 05:17:38 51° NW 05:17:38 51° NW 05:21:50 10° N
Atlas 2A Centaur Rocket 3.2 05:21:39 23° SSE 05:21:39 23° SSE 05:22:48 10° SE
Okean-O 2.6 05:19:43 10° N 05:23:59 60° WNW 05:23:59 60° WNW
Cosmos 1833 4.0 05:21:19 25° NNW 05:24:35 66° WSW 05:30:07 10° S
Centaur AC-64 4.1 05:26:29 13° SSE 05:26:29 13° SSE 05:26:59 10° SE
NOAA 6 4.1 05:21:41 10° NNE 05:26:51 78° ESE 05:31:58 10° S
USA 234 3.8 05:21:40 10° NNE 05:27:34 38° NW 05:29:16 33° WNW
Feng Yun 1-1 Rocket 4.3 05:22:05 10° N 05:27:56 67° WNW 05:33:47 10° SSW
Cosmos 1943 Rocket 4.1 05:33:27 13° NNW 05:33:27 13° NNW 05:34:35 10° NNW
Cosmos 1244 Rocket 4.4 05:26:32 10° NNW 05:32:38 62° W 05:38:40 10° S
SJ-6F 4.2 05:28:46 10° N 05:32:53 74° WNW 05:36:42 12° SSW
Thor Agena Rocket 3.4 05:32:53 10° SSE 05:38:07 82° WSW 05:43:19 10° NNW
Okean 2 Rocket 3.0 05:34:20 10° N 05:38:44 89° W 05:43:08 10° S
CZ-4C R/B 3.0 05:39:57 28° WNW 05:40:19 28° NW 05:45:11 10° N
Radarsat Rocket 4.2 05:34:12 10° NNE 05:41:10 85° ESE 05:47:20 10° SSW
Cosmos 1607 3.8 05:35:10 10° SSW 05:41:17 85° WNW 05:47:27 10° NNE
ATLAS 3B R/B 2.9 05:37:01 10° SSW 05:44:40 82° WNW 05:52:06 10° NNE
SL-08 R/B 4.4 05:38:29 10° N 05:44:49 81° W 05:51:09 10° S
Cosmos 1023 Rocket 4.4 05:39:40 10° NNW 05:44:56 84° WSW 05:50:12 10° SSE
Delta 2 Rocket 4.1 05:44:49 32° WNW 05:46:49 55° N 05:52:01 10° ENE
S3M 4.1 05:46:54 10° SSW 05:53:03 51° W 05:59:10 10° N
Meteor 1-20 Rocket 4.1 05:50:52 10° N 05:56:33 82° W 06:02:05 10° S
ADEOS II 4.1 05:54:58 10° NW 05:55:09 10° NW 05:55:09 10° NW
Cosmos 2151 Rocket 4.0 05:53:54 10° N 05:58:23 67° E 06:02:48 10° SSE
CSL-04 Rocket 4.4 05:54:01 10° NNE 05:59:20 56° ESE 06:04:41 10° S
Cosmos 1741 Rocket 4.2 05:54:20 10° NNW 05:59:35 78° ENE 06:04:51 10° SSE
Cosmos 1553 Rocket 4.3 05:53:57 10° SSW 05:59:44 42° W 06:05:38 10° N
Meteor 2-11 Rocket 4.4 05:55:51 10° SSW 06:01:55 71° W 06:08:02 10° N
COSMO-SKYMED 1 2.5 06:01:19 10° S 06:05:39 76° W 06:09:58 10° NNW
Cosmos 1606 2.8 06:03:18 10° SSW 06:07:03 51° W 06:10:51 10° N
Cosmos 1782 3.3 06:03:50 10° SSW 06:07:30 37° W 06:11:12 10° NNW
Cosmos 2369 3.9 06:05:10 10° SSW 06:10:47 77° ESE 06:16:26 10° NNE
CZ-2C R/B 3.8 06:11:10 10° NNE 06:15:56 45° E 06:20:48 10° S
Cosmos 1140 Rocket 3.9 06:11:12 10° NNW 06:16:02 39° W 06:20:53 10° SSW
USA 81 4.3 06:12:20 10° SSW 06:17:21 44° W 06:22:22 10° NNW
Cosmos 614 Rocket 4.2 06:15:31 10° NNW 06:20:25 48° WSW 06:25:21 10° S
Meteor 2-6 Rocket 4.4 06:18:12 10° SSW 06:23:20 46° W 06:28:30 10° N
Cosmos 2297 Rocket 4.0 06:19:10 10° N 06:24:12 32° ENE 06:29:13 10° SE
Cosmos 2278 3.7 06:21:37 10° SSW 06:27:14 71° WNW 06:32:53 10° NNE
Cosmos 1346 Rocket 4.4 06:26:44 10° SSE 06:30:35 42° E 06:34:26 10° NNE
CSL-04 Debris 4.2 06:26:18 10° N 06:31:42 82° WNW 06:37:04 10° SSW
Cosmos 1709 Rocket 4.0 06:31:02 10° N 06:37:10 81° W 06:43:18 10° S
Cosmos 2219 3.8 06:35:17 10° NW 06:40:18 34° WSW 06:45:17 10° SSW
